Location: Bremen
(53.0796°N, 8.8241°E)
Time: 11:05:22
(UTC+01:00)

ISS - Pass Details

Date: 11 January 2018
Orbit: 402 x 407 km, 51.6° (Epoch: 18 January)

Event Time Altitude Azimuth Distance (km) Brightness Sun altitude
Exits shadow 07:13:57 13° 253° (WSW) 1,316 -1.7 -11.3°
Maximum altitude 07:15:48 19° 214° (SW) 1,048 -1.9 -11.1°
Drops below altitude 10° 07:18:12 10° 167° (SSE) 1,464 -0.5 -10.8°
Sets 07:20:40 0° 148° (SSE) 2,321 1.0 -10.4°
